Weather History for Leuchars, United Kingdom

Change the Weather History Date:

Wednesday, November 14, 2012

  Actual Average Record
Temperature  
Mean Temperature 46 °F -  
Max Temperature 50 °F 45 °F - ()
Min Temperature 41 °F 36 °F - ()
Degree Days  
Heating Degree Days 20    
Moisture  
Dew Point 45 °F    
Average Humidity 92    
Maximum Humidity 100    
Minimum Humidity 84    
Precipitation  
Precipitation 0.02 in - - ()
Sea Level Pressure  
Sea Level Pressure 30.15 in    
Wind  
Wind Speed 6 mph ()    
Max Wind Speed 13 mph    
Max Gust Speed -    
Visibility 6.8 miles    
Events Rain    
T = Trace of Precipitation, MM = Missing Value Source: Averaged Metar Reports

Daily Weather History Graph

Daily Weather History Graph

Search for Another Location

Airport:

Trip Planner

Search our weather history database for the weather conditions in past years. The results will help you decide how hot, cold, wet, or windy it might be!

Date:

Astronomy

Nov. 14, 2012 Rise Set
Actual Time 7:48 AM GMT 4:02 PM GMT
Civil Twilight 7:05 AM GMT 4:45 PM GMT
Nautical Twilight 6:19 AM GMT 5:31 PM GMT
Astronomical Twilight 5:35 AM GMT 6:15 PM GMT
Moon 8:31 AM GMT (11/14) 4:24 PM GMT (11/14)
Length of Visible Light 9h 39m
Length of Day
8h 14m
New Moon, 1% of the Moon is Illuminated
Nov 14
New Moon
Nov 20
First Quarter
Nov 28
Full
Dec 6
Last Quarter
Dec 13
New

Hourly Weather History & Observations

Time (GMT) Temp. Windchill Dew Point Humidity Pressure Visibility Wind Dir Wind Speed Gust Speed Precip Events Conditions
12:50 AM 48.2 °F - 46.4 °F 93% 30.06 in 6.2 mi South 5.8 mph - N/A Rain Light Rain
1:50 AM 48.2 °F - 46.4 °F 93% 30.09 in 6.2 mi SW 12.7 mph - N/A   Overcast
2:50 AM 48 °F - 45 °F 87% 30.11 in 19 mi West 4.6 mph - - Rain Light Rain
2:50 AM 48.2 °F - 44.6 °F 87% 30.09 in 6.2 mi West 4.6 mph - N/A   Overcast
3:50 AM 48.2 °F - 44.6 °F 87% 30.09 in 6.2 mi West 4.6 mph - N/A   Overcast
4:50 AM 46.4 °F - 44.6 °F 93% 30.09 in 6.2 mi NNW 1.2 mph - N/A   Overcast
5:50 AM 47 °F - 46 °F 93% 30.12 in 4 mi West 2.3 mph - - Rain Light Rain
5:50 AM 46.4 °F - 46.4 °F 100% 30.09 in 3.7 mi West 2.3 mph - N/A Rain Light Rain
6:50 AM 46.4 °F 45.2 °F 46.4 °F 100% 30.12 in 4.3 mi SSW 3.5 mph - N/A   Light Drizzle
7:50 AM 46.4 °F - 46.4 °F 100% 30.12 in 3.1 mi NW 1.2 mph - N/A   Light Drizzle
8:50 AM 47 °F - 46 °F 97% 30.16 in 4 mi SW 3.5 mph - - Rain Light Drizzle
8:50 AM 46.4 °F 45.2 °F 46.4 °F 100% 30.15 in 6.2 mi SW 3.5 mph - N/A   Light Drizzle
9:15 AM 48.2 °F - 46.4 °F 93% 30.15 in 6.2 mi West 5.8 mph - N/A   Overcast
9:50 AM 48.2 °F - 48.2 °F 100% 30.15 in 6.2 mi WSW 4.6 mph - N/A   Light Drizzle
10:50 AM 50.0 °F - 48.2 °F 94% 30.15 in 6.2 mi WSW 6.9 mph - N/A   Overcast
11:50 AM 50 °F - 47 °F 84% 30.16 in 16 mi WSW 8.1 mph - -   Partly Cloudy
11:50 AM 50.0 °F - 46.4 °F 87% 30.15 in 6.2 mi WSW 8.1 mph - N/A   Overcast
12:50 PM 50.0 °F - 46.4 °F 87% 30.12 in 6.2 mi SW 10.4 mph - N/A   Overcast
1:50 PM 50.0 °F - 46.4 °F 87% 30.15 in 6.2 mi WSW 9.2 mph - N/A   Overcast
2:50 PM 49 °F - 46 °F 87% 30.16 in 22 mi WSW 10.4 mph - - Rain Light Rain
2:50 PM 50.0 °F - 46.4 °F 87% 30.15 in 6.2 mi WSW 10.4 mph - N/A Rain Light Rain
3:50 PM 48.2 °F - 46.4 °F 93% 30.15 in 6.2 mi WSW 8.1 mph - N/A   Overcast
4:50 PM 48.2 °F - 44.6 °F 87% 30.15 in 6.2 mi WSW 10.4 mph - N/A   Mostly Cloudy
5:50 PM 47 °F - 44 °F 87% 30.19 in 25 mi WSW 8.1 mph - -   Partly Cloudy
5:50 PM 46.4 °F 42.4 °F 44.6 °F 93% 30.18 in - WSW 8.1 mph - N/A   Clear
6:50 PM 46.4 °F 42.9 °F 44.6 °F 93% 30.18 in - West 6.9 mph - N/A   Clear
7:50 PM 46.4 °F 41.9 °F 44.6 °F 93% 30.18 in - WSW 9.2 mph - N/A   Clear
8:50 PM 45 °F - 43 °F 90% 30.21 in 8 mi West 6.9 mph - -   Scattered Clouds
8:50 PM 44.6 °F 40.7 °F 42.8 °F 93% 30.18 in - West 6.9 mph - N/A   Clear
9:50 PM 44.6 °F 40.7 °F 42.8 °F 93% 30.21 in - West 6.9 mph - N/A   Clear
10:50 PM 41.0 °F 35.8 °F 39.2 °F 93% 30.21 in - West 8.1 mph - N/A   Clear
11:50 PM 42 °F - 41 °F 96% 30.22 in 7 mi West 8.1 mph - -   Mist
11:50 PM 42.8 °F 38.0 °F 41.0 °F 93% 30.21 in - West 8.1 mph - N/A   Clear